User: anonymous   Login
Location: Newark
(40.9833°N, 0.0333°W)
Time: 00:47:41
(UTC+00:00)
Language:

NOAA 15 - Orbit

View from above orbital plane
View from above orbital plane
View from above satellite
View from above satellite

Ground track
Ground track

The orbit data is extracted from the following two-line orbital elements,

1 25338U 98030A   19320.56142486  .00000006  00000-0  21242-4 0  9993
2 25338  98.7372 341.4883 0010799 159.5115 200.6499 14.25939345118750
Epoch (UTC): 16 November 2019 13:28:27
Eccentricity: 0.0010799
inclination: 98.7372°
perigee height: 797 km
apogee height: 813 km
right ascension of ascending node: 341.4883°
argument of perigee: 159.5115°
revolutions per day: 14.25939345
mean anomaly at epoch: 200.6499°
orbit number at epoch: 11875

The dashed part of the orbit path shows where the satellite is in the earth's shadow,  

DLR